User: anonymous   Login
Location: Unspecified
(0.0000°N, 0.0000°E)
Time: 23:28:15
(UTC+00:00)
Language:

UHF F/O F3 - Orbit

View from above orbital plane
View from above orbital plane
View from above satellite
View from above satellite

Ground track
Ground track

The orbit data is extracted from the following two-line orbital elements,

1 23132U 94035A   18039.12671634 0.00000000  00000-0  00000-0 0    06
2 23132  11.0287  24.8092 0003649 288.8402  71.1322  1.00201299    01
Epoch (UTC): 08 February 2018 03:02:28
Eccentricity: 0.0003649
inclination: 11.0287°
perigee height: 35790 km
apogee height: 35821 km
right ascension of ascending node: 24.8092°
argument of perigee: 288.8402°
revolutions per day: 1.00201299
mean anomaly at epoch: 71.1322°
orbit number at epoch: 0

The dashed part of the orbit path shows where the satellite is in the earth's shadow,  

DLR